TimeMST,TemperatureF,Dew PointF,Humidity,Sea Level PressureIn,VisibilityMPH,Wind Direction,Wind SpeedMPH,Gust SpeedMPH,PrecipitationIn,Events,Conditions,WindDirDegrees,DateUTC
12:15 AM,-13.0,-18.4,77,29.94,10.0,Calm,Calm,-,N/A,,Scattered Clouds,0,2014-02-03 07:15:00
12:35 AM,-14.8,-20.2,77,29.94,10.0,Calm,Calm,-,N/A,,Scattered Clouds,0,2014-02-03 07:35:00
12:55 AM,-13.0,-18.4,77,29.94,10.0,Calm,Calm,-,N/A,,Scattered Clouds,0,2014-02-03 07:55:00
1:15 AM,-11.2,-16.6,77,29.93,10.0,Calm,Calm,-,N/A,,Scattered Clouds,0,2014-02-03 08:15:00
1:35 AM,-14.8,-20.2,77,29.93,7.0,Calm,Calm,-,N/A,,Scattered Clouds,0,2014-02-03 08:35:00
1:55 AM,-14.8,-22.0,70,29.93,10.0,Calm,Calm,-,N/A,,Scattered Clouds,0,2014-02-03 08:55:00
2:15 AM,-13.0,-18.4,77,29.93,10.0,Calm,Calm,-,N/A,,Mostly Cloudy,0,2014-02-03 09:15:00
2:35 AM,-14.8,-22.0,70,29.93,10.0,Calm,Calm,-,N/A,,Overcast,0,2014-02-03 09:35:00
2:55 AM,-13.0,-18.4,77,29.92,10.0,Calm,Calm,-,N/A,,Overcast,0,2014-02-03 09:55:00
3:15 AM,-13.0,-18.4,77,29.91,10.0,Calm,Calm,-,N/A,,Overcast,0,2014-02-03 10:15:00
3:34 AM,-9.4,-16.6,71,29.91,10.0,Calm,Calm,-,N/A,,Overcast,0,2014-02-03 10:34:00
3:55 AM,-9.4,-16.6,71,29.90,7.0,Calm,Calm,-,N/A,,Overcast,0,2014-02-03 10:55:00
4:15 AM,-9.4,-16.6,71,29.91,7.0,Calm,Calm,-,N/A,,Overcast,0,2014-02-03 11:15:00
4:35 AM,-9.4,-16.6,71,29.91,5.0,Calm,Calm,-,N/A,,Haze,0,2014-02-03 11:35:00
4:55 AM,-9.4,-16.6,71,29.90,7.0,Calm,Calm,-,N/A,,Overcast,0,2014-02-03 11:55:00
5:15 AM,-9.4,-16.6,71,29.90,7.0,Calm,Calm,-,N/A,Snow,Light Snow,0,2014-02-03 12:15:00
5:35 AM,-9.4,-16.6,71,29.90,5.0,Calm,Calm,-,N/A,Snow,Light Snow,0,2014-02-03 12:35:00
5:55 AM,-9.4,-16.6,71,29.90,7.0,Calm,Calm,-,N/A,Snow,Light Snow,0,2014-02-03 12:55:00
6:15 AM,-7.6,-14.8,71,29.90,5.0,Calm,Calm,-,N/A,Snow,Light Snow,0,2014-02-03 13:15:00
6:35 AM,-9.4,-14.8,77,29.89,3.0,Calm,Calm,-,N/A,Snow,Light Snow,0,2014-02-03 13:35:00
6:55 AM,-9.4,-14.8,77,29.90,5.0,Calm,Calm,-,N/A,Snow,Light Snow,0,2014-02-03 13:55:00
7:15 AM,-9.4,-16.6,71,29.90,4.0,Calm,Calm,-,N/A,Snow,Light Snow,0,2014-02-03 14:15:00
7:35 AM,-9.4,-14.8,77,29.91,10.0,Calm,Calm,-,N/A,,Overcast,0,2014-02-03 14:35:00
7:55 AM,-9.4,-14.8,77,29.91,4.0,Calm,Calm,-,N/A,,Haze,0,2014-02-03 14:55:00
8:15 AM,-7.6,-13.0,77,29.91,10.0,Calm,Calm,-,N/A,,Mostly Cloudy,0,2014-02-03 15:15:00
8:34 AM,-7.6,-13.0,77,29.91,5.0,Calm,Calm,-,N/A,,Haze,0,2014-02-03 15:34:00
8:55 AM,-5.8,-11.2,77,29.91,10.0,Calm,Calm,-,N/A,,Overcast,0,2014-02-03 15:55:00
9:14 AM,-4.0,-9.4,78,29.91,5.0,Calm,Calm,-,N/A,,Haze,0,2014-02-03 16:14:00
9:35 AM,-2.2,-7.6,78,29.89,4.0,Calm,Calm,-,N/A,,Haze,0,2014-02-03 16:35:00
9:54 AM,-2.2,-7.6,78,29.90,4.0,Calm,Calm,-,N/A,,Haze,0,2014-02-03 16:54:00
10:15 AM,1.4,-5.8,72,29.89,5.0,Calm,Calm,-,N/A,,Haze,0,2014-02-03 17:15:00
10:35 AM,1.4,-5.8,72,29.89,7.0,Calm,Calm,-,N/A,,Mostly Cloudy,0,2014-02-03 17:35:00
10:55 AM,1.4,-5.8,72,29.88,10.0,Calm,Calm,-,N/A,,Mostly Cloudy,0,2014-02-03 17:55:00
11:14 AM,3.2,-7.6,61,29.87,10.0,Calm,Calm,-,N/A,,Scattered Clouds,0,2014-02-03 18:14:00
11:35 AM,3.2,-7.6,61,29.87,10.0,Calm,Calm,-,N/A,,Mostly Cloudy,0,2014-02-03 18:35:00
11:55 AM,3.2,-5.8,66,29.86,10.0,Calm,Calm,-,N/A,,Overcast,0,2014-02-03 18:55:00
12:15 PM,8.6,-4.0,57,29.84,10.0,Calm,Calm,-,N/A,,Overcast,0,2014-02-03 19:15:00
12:35 PM,8.6,-4.0,57,29.83,10.0,Calm,Calm,-,N/A,,Overcast,0,2014-02-03 19:35:00
12:55 PM,8.6,-4.0,57,29.82,10.0,Calm,Calm,-,N/A,,Overcast,0,2014-02-03 19:55:00
1:15 PM,10.4,-2.2,57,29.81,10.0,Calm,Calm,-,N/A,,Overcast,0,2014-02-03 20:15:00
1:35 PM,10.4,-0.4,62,29.81,10.0,Calm,Calm,-,N/A,,Overcast,0,2014-02-03 20:35:00
1:54 PM,10.4,-0.4,62,29.80,10.0,Calm,Calm,-,N/A,,Overcast,0,2014-02-03 20:54:00
2:15 PM,10.4,-0.4,62,29.80,10.0,Calm,Calm,-,N/A,,Overcast,0,2014-02-03 21:15:00
2:35 PM,10.4,-0.4,62,29.80,10.0,Calm,Calm,-,N/A,,Overcast,0,2014-02-03 21:35:00
2:55 PM,10.4,-0.4,62,29.80,10.0,Calm,Calm,-,N/A,,Overcast,0,2014-02-03 21:55:00
3:14 PM,10.4,1.4,67,29.80,2.0,Calm,Calm,-,N/A,Snow,Light Snow,0,2014-02-03 22:14:00
3:35 PM,10.4,1.4,67,29.80,2.5,Calm,Calm,-,N/A,Snow,Light Snow,0,2014-02-03 22:35:00
3:54 PM,10.4,3.2,73,29.80,4.0,Calm,Calm,-,N/A,Snow,Light Snow,0,2014-02-03 22:54:00
4:14 PM,10.4,3.2,73,29.80,4.0,Calm,Calm,-,N/A,Snow,Light Snow,0,2014-02-03 23:14:00
4:35 PM,10.4,3.2,73,29.80,7.0,Calm,Calm,-,N/A,Snow,Light Snow,0,2014-02-03 23:35:00
4:55 PM,10.4,3.2,73,29.80,5.0,Calm,Calm,-,N/A,Snow,Light Snow,0,2014-02-03 23:55:00
5:15 PM,10.4,3.2,73,29.80,5.0,Calm,Calm,-,N/A,,Haze,0,2014-02-04 00:15:00
5:34 PM,10.4,3.2,73,29.80,7.0,Calm,Calm,-,N/A,,Overcast,0,2014-02-04 00:34:00
5:55 PM,10.4,5.0,79,29.80,7.0,Calm,Calm,-,N/A,,Overcast,0,2014-02-04 00:55:00
6:14 PM,10.4,5.0,79,29.81,5.0,Calm,Calm,-,N/A,Snow,Light Snow,0,2014-02-04 01:14:00
6:34 PM,10.4,5.0,79,29.80,4.0,Calm,Calm,-,N/A,Snow,Light Snow,0,2014-02-04 01:34:00
6:54 PM,10.4,5.0,79,29.80,4.0,Calm,Calm,-,N/A,Snow,Light Snow,0,2014-02-04 01:54:00
7:15 PM,10.4,5.0,79,29.81,5.0,Calm,Calm,-,N/A,Snow,Light Snow,0,2014-02-04 02:15:00
7:35 PM,10.4,5.0,79,29.80,4.0,Calm,Calm,-,N/A,Snow,Light Snow,0,2014-02-04 02:35:00
7:55 PM,8.6,3.2,79,29.80,4.0,Calm,Calm,-,N/A,Snow,Light Snow,0,2014-02-04 02:55:00
8:15 PM,5.0,1.4,85,29.80,5.0,Calm,Calm,-,N/A,Snow,Light Snow,0,2014-02-04 03:15:00
8:35 PM,5.0,1.4,85,29.80,5.0,Calm,Calm,-,N/A,Snow,Light Snow,0,2014-02-04 03:35:00
8:55 PM,8.6,3.2,79,29.80,3.0,Calm,Calm,-,N/A,Snow,Light Snow,0,2014-02-04 03:55:00
9:15 PM,8.6,3.2,79,29.80,2.5,Calm,Calm,-,N/A,Snow,Light Snow,0,2014-02-04 04:15:00
9:34 PM,8.6,3.2,79,29.79,3.0,Calm,Calm,-,N/A,Snow,Light Snow,0,2014-02-04 04:34:00
9:55 PM,8.6,3.2,79,29.79,3.0,Calm,Calm,-,N/A,Snow,Light Snow,0,2014-02-04 04:55:00
10:15 PM,10.4,5.0,79,29.78,2.5,Calm,Calm,-,N/A,Snow,Light Snow,0,2014-02-04 05:15:00
10:35 PM,10.4,5.0,79,29.78,3.0,Calm,Calm,-,N/A,Snow,Light Snow,0,2014-02-04 05:35:00
10:55 PM,8.6,5.0,85,29.78,3.0,Calm,Calm,-,N/A,Snow,Light Snow,0,2014-02-04 05:55:00
11:15 PM,8.6,3.2,79,29.77,2.5,Calm,Calm,-,N/A,Snow,Light Snow,0,2014-02-04 06:15:00
11:35 PM,10.4,5.0,79,29.77,1.5,Calm,Calm,-,N/A,Snow,Light Snow,0,2014-02-04 06:35:00
11:55 PM,10.4,5.0,79,29.76,1.2,Calm,Calm,-,N/A,Snow,Light Snow,0,2014-02-04 06:55:00